| time (UTC) | temp C | wind direction | speed KPH | gust KPH | rain 1hr cm | rain 24hr cm | rain mn cm | humidity % | barometer mb |
| 20260503031610 | 12 | 177 | 3.2 | 8.0 | 0.00 | 0.00 | 0.00 | 48 | 1010.7 |
| 20260503030035 | 13 | 173 | 4.8 | 8.0 | 0.00 | 0.00 | 0.00 | 47 | 1010.9 |
| 20260503024529 | 12 | 171 | 8.0 | 11.3 | 0.00 | 0.00 | 0.00 | 48 | 1011.0 |
| 20260503023000 | 12 | 193 | 4.8 | 8.0 | 0.00 | 0.00 | 0.00 | 47 | 1011.1 |
| 20260503021603 | 12 | 186 | 4.8 | 9.7 | 0.00 | 0.00 | 0.00 | 46 | 1011.1 |
| 20260503020041 | 13 | 163 | 4.8 | 8.0 | 0.00 | 0.00 | 0.00 | 47 | 1011.2 |
| 20260503014553 | 13 | 178 | 3.2 | 8.0 | 0.00 | 0.00 | 0.00 | 44 | 1011.2 |
| 20260503013024 | 13 | 184 | 4.8 | 8.0 | 0.00 | 0.00 | 0.00 | 44 | 1011.2 |
| 20260503011514 | 13 | 179 | 3.2 | 9.7 | 0.00 | 0.00 | 0.00 | 45 | 1011.3 |
| 20260503010052 | 13 | 173 | 4.8 | 8.0 | 0.00 | 0.00 | 0.00 | 44 | 1011.5 |
| 20260503004551 | 14 | 165 | 3.2 | 8.0 | 0.00 | 0.00 | 0.00 | 43 | 1011.5 |
| 20260503003023 | 14 | 203 | 4.8 | 9.7 | 0.00 | 0.00 | 0.00 | 42 | 1011.5 |
| 20260503001513 | 14 | 210 | 6.4 | 9.7 | 0.00 | 0.00 | 0.00 | 41 | 1011.8 |
| 20260503000058 | 15 | 196 | 4.8 | 14.5 | 0.00 | 0.00 | 0.00 | 41 | 1012.0 |
| 20260502234545 | 15 | 244 | 4.8 | 12.9 | 0.00 | 0.00 | 0.00 | 42 | 1012.2 |
| 20260502233021 | 15 | 219 | 8.0 | 20.9 | 0.00 | 0.00 | 0.00 | 41 | 1012.3 |
| 20260502231521 | 15 | 230 | 8.0 | 24.1 | 0.00 | 0.00 | 0.00 | 42 | 1012.3 |
| 20260502230051 | 15 | 219 | 16.1 | 24.1 | 0.00 | 0.00 | 0.00 | 40 | 1012.5 |
| 20260502224559 | 15 | 219 | 9.7 | 20.9 | 0.00 | 0.00 | 0.00 | 41 | 1012.7 |
| 20260502223029 | 15 | 220 | 14.5 | 24.1 | 0.00 | 0.00 | 0.00 | 38 | 1012.7 |
| 20260502221533 | 15 | 201 | 11.3 | 17.7 | 0.00 | 0.00 | 0.00 | 39 | 1012.9 |
| 20260502220007 | 16 | 224 | 14.5 | 24.1 | 0.00 | 0.00 | 0.00 | 37 | 1012.9 |
| 20260502214505 | 16 | 250 | 11.3 | 25.7 | 0.00 | 0.00 | 0.00 | 36 | 1013.0 |
| 20260502213029 | 16 | 279 | 12.9 | 27.4 | 0.00 | 0.00 | 0.00 | 39 | 1013.3 |
| 20260502211537 | 16 | 262 | 14.5 | 24.1 | 0.00 | 0.00 | 0.00 | 36 | 1013.5 |
| 20260502210000 | 15 | 234 | 9.7 | 25.7 | 0.00 | 0.00 | 0.00 | 37 | 1013.5 |
| 20260502204555 | 15 | 209 | 12.9 | 24.1 | 0.00 | 0.00 | 0.00 | 36 | 1013.8 |
| 20260502203028 | 15 | 228 | 14.5 | 24.1 | 0.00 | 0.00 | 0.00 | 34 | 1014.0 |
| 20260502201520 | 15 | 239 | 16.1 | 25.7 | 0.00 | 0.00 | 0.00 | 35 | 1014.4 |
| 20260502200051 | 15 | 232 | 17.7 | 33.8 | 0.00 | 0.00 | 0.00 | 38 | 1014.6 |
| 20260502194553 | 15 | 250 | 11.3 | 27.4 | 0.00 | 0.00 | 0.00 | 36 | 1014.8 |
| 20260502193013 | 15 | 236 | 20.9 | 30.6 | 0.00 | 0.00 | 0.00 | 36 | 1015.0 |
| 20260502191511 | 14 | 286 | 11.3 | 27.4 | 0.00 | 0.00 | 0.00 | 36 | 1015.2 |
| 20260502190043 | 14 | 227 | 14.5 | 24.1 | 0.00 | 0.00 | 0.00 | 40 | 1015.5 |
| 20260502184543 | 13 | 207 | 11.3 | 27.4 | 0.00 | 0.00 | 0.00 | 36 | 1015.6 |
| 20260502183007 | 14 | 221 | 8.0 | 17.7 | 0.00 | 0.00 | 0.00 | 40 | 1015.9 |
| 20260502181552 | 14 | 269 | 14.5 | 27.4 | 0.00 | 0.00 | 0.00 | 39 | 1016.1 |
| 20260502163034 | 12 | 250 | 19.3 | 33.8 | 0.00 | 0.00 | 0.00 | 37 | 1017.4 |
| 20260502161517 | 12 | 312 | 17.7 | 32.2 | 0.00 | 0.00 | 0.00 | 36 | 1017.6 |
| 20260502151544 | 10 | 263 | 11.3 | 16.1 | 0.00 | 0.00 | 0.00 | 49 | 1018.2 |
| 20260502123126 | 2 | 169 | 1.6 | 4.8 | 0.00 | 0.00 | 0.00 | 66 | 1019.1 |
| 20260502121602 | 2 | 122 | 0.0 | 1.6 | 0.00 | 0.00 | 0.00 | 67 | 1019.0 |
| 20260502114524 | 0 | 122 | 0.0 | 0.0 | 0.00 | 0.00 | 0.00 | 75 | 1018.9 |
| 20260502113057 | 0 | 122 | 0.0 | 0.0 | 0.00 | 0.00 | 0.00 | 71 | 1018.9 |
| 20260502111553 | 0 | 122 | 0.0 | 3.2 | 0.00 | 0.00 | 0.00 | 71 | 1018.8 |
| 20260502110030 | 1 | 122 | 0.0 | 3.2 | 0.00 | 0.00 | 0.00 | 68 | 1018.9 |
| 20260502104522 | 1 | 123 | 1.6 | 3.2 | 0.00 | 0.00 | 0.00 | 65 | 1018.9 |
| 20260502103016 | 2 | 123 | 0.0 | 1.6 | 0.00 | 0.00 | 0.00 | 65 | 1019.0 |
| 20260502101515 | 2 | 123 | 0.0 | 3.2 | 0.00 | 0.00 | 0.00 | 62 | 1019.1 |
| 20260502091508 | 2 | 143 | 1.6 | 4.8 | 0.00 | 0.00 | 0.00 | 60 | 1019.3 |
| 20260502071507 | 1 | 112 | 1.6 | 3.2 | 0.00 | 0.00 | 0.00 | 69 | 1019.6 |
| 20260502070036 | 1 | 104 | 0.0 | 3.2 | 0.00 | 0.00 | 0.00 | 73 | 1019.7 |
| 20260502064535 | 1 | 101 | 1.6 | 4.8 | 0.00 | 0.00 | 0.00 | 69 | 1019.7 |
| 20260502063100 | 2 | 110 | 0.0 | 4.8 | 0.00 | 0.00 | 0.00 | 67 | 1019.8 |
| 20260502063001 | 2 | 110 | 0.0 | 4.8 | 0.00 | 0.00 | 0.00 | 67 | 1019.8 |
| 20260502061556 | 3 | 94 | 0.0 | 3.2 | 0.00 | 0.00 | 0.00 | 63 | 1019.8 |
| 20260502060029 | 2 | 103 | 1.6 | 4.8 | 0.00 | 0.00 | 0.00 | 64 | 1019.8 |
| 20260502054528 | 2 | 69 | 0.0 | 3.2 | 0.00 | 0.00 | 0.00 | 65 | 1019.7 |
| 20260502053002 | 2 | 39 | 0.0 | 3.2 | 0.00 | 0.00 | 0.00 | 65 | 1019.8 |
| 20260502051555 | 2 | 39 | 0.0 | 0.0 | 0.00 | 0.00 | 0.00 | 65 | 1019.8 |
| 20260502050139 | 2 | 39 | 0.0 | 0.0 | 0.00 | 0.00 | 0.00 | 64 | 1019.7 |
| 20260502044521 | 3 | 39 | 0.0 | 0.0 | 0.00 | 0.00 | 0.00 | 59 | 1019.6 |
| 20260502043110 | 3 | 39 | 0.0 | 0.0 | 0.00 | 0.00 | 0.00 | 59 | 1019.6 |
| 20260502041559 | 3 | 39 | 0.0 | 1.6 | 0.00 | 0.00 | 0.00 | 59 | 1019.6 |
| 20260502040032 | 3 | 39 | 0.0 | 1.6 | 0.00 | 0.00 | 0.00 | 58 | 1019.6 |
| 20260502034531 | 4 | 39 | 1.6 | 3.2 | 0.00 | 0.00 | 0.00 | 56 | 1019.6 |
| 20260502033020 | 5 | 39 | 1.6 | 3.2 | 0.00 | 0.00 | 0.00 | 54 | 1019.6 |